User: anonymous   Login
Location: Starry Hill Observatory
(46.8582°N, 122.3590°W)
Time: 22:21:36
(UTC-07:00)
Language:

Cosmos 1300 Rocket - Orbit

View from above orbital plane
View from above orbital plane
View from above satellite
View from above satellite

Ground track
Ground track

The orbit data is extracted from the following two-line orbital elements,

1 12786U 81082B   16268.99416028  .00000149  00000-0  14683-4 0  9995
2 12786  82.4898 217.6285 0018883  53.4697 306.8254 14.84639917895460
Epoch (UTC): 24 September 2016 23:51:35
Eccentricity: 0.0018883
inclination: 82.4898°
perigee height: 601 km
apogee height: 628 km
right ascension of ascending node: 217.6285°
argument of perigee: 53.4697°
revolutions per day: 14.84639917
mean anomaly at epoch: 306.8254°
orbit number at epoch: 89546

The dashed part of the orbit path shows where the satellite is in the earth's shadow,  

DLR